| time (UTC) | temp F | wind direction | speed knots | gust knots | rain 1hr in | rain 24hr in | rain mn in | humidity % | barometer mb |
| 20260507231601 | 51 | 181 | 0.9 | 6.1 | 0.00 | 0.00 | 0.00 | 53 | 1008.1 |
| 20260507231102 | 51 | 22 | 0.9 | 4.3 | 0.00 | 0.00 | 0.00 | 54 | 1008.1 |
| 20260507230532 | 51 | 346 | 0.9 | 8.7 | 0.00 | 0.00 | 0.00 | 54 | 1008.0 |
| 20260507230032 | 51 | 337 | 1.7 | 8.7 | 0.00 | 0.00 | 0.00 | 54 | 1008.0 |
| 20260507225501 | 51 | 357 | 2.6 | 10.4 | 0.00 | 0.00 | 0.00 | 54 | 1007.8 |
| 20260507225001 | 51 | 354 | 1.7 | 7.8 | 0.00 | 0.00 | 0.00 | 56 | 1007.7 |
| 20260507224432 | 51 | 340 | 2.6 | 6.1 | 0.00 | 0.00 | 0.00 | 55 | 1007.7 |
| 20260507223902 | 52 | 344 | 3.5 | 7.8 | 0.00 | 0.00 | 0.00 | 55 | 1007.7 |
| 20260507223402 | 52 | 339 | 2.6 | 7.8 | 0.00 | 0.00 | 0.00 | 54 | 1007.6 |
| 20260507222831 | 52 | 339 | 1.7 | 5.2 | 0.00 | 0.00 | 0.00 | 55 | 1007.6 |
| 20260507222507 | 52 | 341 | 1.7 | 4.3 | 0.00 | 0.00 | 0.00 | 54 | 1007.4 |
| 20260507222333 | 52 | 341 | 1.7 | 4.3 | 0.00 | 0.00 | 0.00 | 54 | 1007.4 |
| 20260507221831 | 53 | 343 | 1.7 | 5.2 | 0.00 | 0.00 | 0.00 | 54 | 1007.4 |
| 20260507221302 | 53 | 356 | 1.7 | 6.1 | 0.00 | 0.00 | 0.00 | 53 | 1007.3 |
| 20260507220732 | 53 | 354 | 1.7 | 6.1 | 0.00 | 0.00 | 0.00 | 53 | 1007.3 |
| 20260507220232 | 53 | 354 | 1.7 | 7.0 | 0.00 | 0.00 | 0.00 | 55 | 1007.2 |
| 20260507215732 | 54 | 355 | 2.6 | 7.0 | 0.00 | 0.00 | 0.00 | 53 | 1007.1 |
| 20260507215232 | 54 | 343 | 2.6 | 6.1 | 0.00 | 0.00 | 0.00 | 54 | 1007.0 |
| 20260507214702 | 54 | 346 | 4.3 | 11.3 | 0.00 | 0.00 | 0.00 | 53 | 1006.9 |
| 20260507214132 | 54 | 347 | 4.3 | 11.3 | 0.00 | 0.00 | 0.00 | 53 | 1006.8 |
| 20260507213601 | 54 | 331 | 3.5 | 9.6 | 0.00 | 0.00 | 0.00 | 53 | 1006.9 |
| 20260507213101 | 54 | 329 | 2.6 | 6.1 | 0.00 | 0.00 | 0.00 | 52 | 1006.9 |
| 20260507212602 | 54 | 343 | 2.6 | 6.1 | 0.00 | 0.00 | 0.00 | 52 | 1006.8 |
| 20260507212031 | 54 | 349 | 1.7 | 6.1 | 0.00 | 0.00 | 0.00 | 53 | 1006.7 |
| 20260507211502 | 54 | 338 | 0.9 | 4.3 | 0.00 | 0.00 | 0.00 | 52 | 1006.7 |
| 20260507211001 | 54 | 351 | 1.7 | 6.1 | 0.00 | 0.00 | 0.00 | 51 | 1006.5 |
| 20260507210502 | 54 | 346 | 1.7 | 6.1 | 0.00 | 0.00 | 0.00 | 52 | 1006.6 |
| 20260507205932 | 55 | 346 | 2.6 | 6.1 | 0.00 | 0.00 | 0.00 | 51 | 1006.7 |
| 20260507205401 | 55 | 348 | 3.5 | 7.0 | 0.00 | 0.00 | 0.00 | 50 | 1006.6 |
| 20260507204832 | 55 | 344 | 3.5 | 9.6 | 0.00 | 0.00 | 0.00 | 50 | 1006.6 |
| 20260507204301 | 56 | 344 | 2.6 | 9.6 | 0.00 | 0.00 | 0.00 | 50 | 1006.6 |
| 20260507203801 | 56 | 343 | 1.7 | 5.2 | 0.00 | 0.00 | 0.00 | 48 | 1006.6 |
| 20260507203232 | 56 | 4 | 0.9 | 5.2 | 0.00 | 0.00 | 0.00 | 48 | 1006.6 |
| 20260507202702 | 56 | 229 | 0.9 | 6.1 | 0.00 | 0.00 | 0.00 | 49 | 1006.7 |
| 20260507202131 | 55 | 344 | 0.9 | 6.1 | 0.00 | 0.00 | 0.00 | 47 | 1006.8 |
| 20260507201632 | 55 | 352 | 1.7 | 7.0 | 0.00 | 0.00 | 0.00 | 48 | 1006.8 |
| 20260507201101 | 55 | 341 | 2.6 | 7.0 | 0.00 | 0.00 | 0.00 | 46 | 1006.8 |
| 20260507200601 | 56 | 137 | 1.7 | 7.0 | 0.00 | 0.00 | 0.00 | 44 | 1006.6 |
| 20260507200031 | 56 | 1 | 1.7 | 5.2 | 0.00 | 0.00 | 0.00 | 45 | 1006.7 |
| 20260507195532 | 56 | 259 | 1.7 | 5.2 | 0.00 | 0.00 | 0.00 | 45 | 1006.7 |
| 20260507195001 | 56 | 176 | 0.9 | 4.3 | 0.00 | 0.00 | 0.00 | 44 | 1006.8 |
| 20260507194501 | 56 | 138 | 0.9 | 7.0 | 0.00 | 0.00 | 0.00 | 46 | 1006.8 |
| 20260507193931 | 57 | 147 | 0.9 | 7.0 | 0.00 | 0.00 | 0.00 | 45 | 1006.8 |
| 20260507193401 | 56 | 173 | 0.9 | 5.2 | 0.00 | 0.00 | 0.00 | 46 | 1006.9 |
| 20260507192831 | 56 | 171 | 1.7 | 5.2 | 0.00 | 0.00 | 0.00 | 46 | 1006.9 |
| 20260507192305 | 56 | 169 | 2.6 | 5.2 | 0.00 | 0.00 | 0.00 | 46 | 1006.9 |
| 20260507191731 | 56 | 177 | 1.7 | 5.2 | 0.00 | 0.00 | 0.00 | 45 | 1006.9 |
| 20260507191232 | 57 | 351 | 2.6 | 8.7 | 0.00 | 0.00 | 0.00 | 45 | 1007.0 |
| 20260507190731 | 57 | 355 | 2.6 | 8.7 | 0.00 | 0.00 | 0.00 | 44 | 1007.0 |
| 20260507185631 | 57 | 337 | 1.7 | 7.0 | 0.00 | 0.00 | 0.00 | 51 | 1007.3 |
| 20260507185131 | 56 | 161 | 0.9 | 4.3 | 0.00 | 0.00 | 0.00 | 50 | 1007.3 |
| 20260507184602 | 55 | 66 | 1.7 | 5.2 | 0.00 | 0.00 | 0.00 | 49 | 1007.5 |
| 20260507184101 | 55 | 3 | 1.7 | 6.1 | 0.00 | 0.00 | 0.00 | 49 | 1007.5 |
| 20260507183531 | 55 | 350 | 1.7 | 6.1 | 0.00 | 0.00 | 0.00 | 50 | 1007.5 |
| 20260507183031 | 55 | 346 | 1.7 | 5.2 | 0.00 | 0.00 | 0.00 | 50 | 1007.5 |
| 20260507182503 | 55 | 352 | 1.7 | 9.6 | 0.00 | 0.00 | 0.00 | 48 | 1007.4 |
| 20260507182001 | 56 | 13 | 1.7 | 9.6 | 0.00 | 0.00 | 0.00 | 49 | 1007.4 |
| 20260507181431 | 56 | 331 | 1.7 | 5.2 | 0.00 | 0.00 | 0.00 | 47 | 1007.4 |
| 20260507180901 | 57 | 181 | 0.9 | 4.3 | 0.00 | 0.00 | 0.00 | 48 | 1007.4 |
| 20260507180331 | 57 | 360 | 1.7 | 7.0 | 0.00 | 0.00 | 0.00 | 48 | 1007.4 |
| 20260507175801 | 57 | 346 | 1.7 | 7.0 | 0.00 | 0.00 | 0.00 | 49 | 1007.4 |
| 20260507175231 | 56 | 316 | 0.9 | 5.2 | 0.00 | 0.00 | 0.00 | 51 | 1007.5 |
| 20260507174701 | 56 | 106 | 0.9 | 7.0 | 0.00 | 0.00 | 0.00 | 47 | 1007.6 |
| 20260507174201 | 56 | 296 | 1.7 | 6.1 | 0.00 | 0.00 | 0.00 | 47 | 1007.7 |
| 20260507173631 | 57 | 287 | 1.7 | 6.1 | 0.00 | 0.00 | 0.00 | 44 | 1007.7 |
| 20260507173131 | 57 | 200 | 2.6 | 7.8 | 0.00 | 0.00 | 0.00 | 47 | 1007.7 |
| 20260507172601 | 57 | 176 | 2.6 | 7.8 | 0.00 | 0.00 | 0.00 | 44 | 1007.8 |
| 20260507172031 | 56 | 198 | 1.7 | 6.1 | 0.00 | 0.00 | 0.00 | 47 | 1007.9 |
| 20260507171532 | 56 | 144 | 1.7 | 7.8 | 0.00 | 0.00 | 0.00 | 48 | 1007.9 |
| 20260507171001 | 56 | 360 | 2.6 | 7.8 | 0.00 | 0.00 | 0.00 | 46 | 1007.9 |
| 20260507170431 | 56 | 351 | 2.6 | 5.2 | 0.00 | 0.00 | 0.00 | 47 | 1007.9 |
| 20260507165901 | 57 | 292 | 2.6 | 6.1 | 0.00 | 0.00 | 0.00 | 46 | 1007.8 |
| 20260507165401 | 57 | 160 | 1.7 | 7.0 | 0.00 | 0.00 | 0.00 | 44 | 1008.0 |
| 20260507164832 | 56 | 40 | 2.6 | 8.7 | 0.00 | 0.00 | 0.00 | 48 | 1008.1 |
| 20260507164301 | 56 | 10 | 2.6 | 8.7 | 0.00 | 0.00 | 0.00 | 45 | 1008.1 |
| 20260507164014 | 56 | 15 | 1.7 | 6.1 | 0.00 | 0.00 | 0.00 | 45 | 1008.2 |
| 20260507163732 | 56 | 15 | 1.7 | 6.1 | 0.00 | 0.00 | 0.00 | 45 | 1008.2 |
| 20260507163233 | 56 | 197 | 1.7 | 5.2 | 0.00 | 0.00 | 0.00 | 44 | 1008.2 |
| 20260507162701 | 56 | 348 | 2.6 | 7.0 | 0.00 | 0.00 | 0.00 | 45 | 1008.2 |
| 20260507162132 | 56 | 20 | 1.7 | 7.0 | 0.00 | 0.00 | 0.00 | 46 | 1008.3 |
| 20260507161631 | 55 | 130 | 1.7 | 5.2 | 0.00 | 0.00 | 0.00 | 46 | 1008.2 |
| 20260507161101 | 55 | 146 | 0.9 | 5.2 | 0.00 | 0.00 | 0.00 | 46 | 1008.4 |
| 20260507160601 | 55 | 4 | 1.7 | 7.8 | 0.00 | 0.00 | 0.00 | 48 | 1008.5 |
| 20260507155601 | 55 | 10 | 1.7 | 5.2 | 0.00 | 0.00 | 0.00 | 47 | 1008.5 |
| 20260507155031 | 55 | 32 | 1.7 | 7.8 | 0.00 | 0.00 | 0.00 | 48 | 1008.7 |
| 20260507154501 | 54 | 162 | 1.7 | 7.8 | 0.00 | 0.00 | 0.00 | 47 | 1008.7 |
| 20260507154002 | 53 | 175 | 1.7 | 6.1 | 0.00 | 0.00 | 0.00 | 47 | 1008.8 |
| 20260507153431 | 53 | 168 | 1.7 | 6.1 | 0.00 | 0.00 | 0.00 | 49 | 1008.9 |
| 20260507152931 | 53 | 156 | 1.7 | 5.2 | 0.00 | 0.00 | 0.00 | 47 | 1008.9 |
| 20260507152401 | 53 | 60 | 1.7 | 5.2 | 0.00 | 0.00 | 0.00 | 49 | 1009.0 |
| 20260507151831 | 53 | 22 | 0.9 | 5.2 | 0.00 | 0.00 | 0.00 | 49 | 1009.0 |
| 20260507151301 | 53 | 165 | 1.7 | 7.0 | 0.00 | 0.00 | 0.00 | 50 | 1009.1 |
| 20260507150202 | 53 | 312 | 1.7 | 7.8 | 0.00 | 0.00 | 0.00 | 49 | 1009.1 |
| 20260507145701 | 53 | 286 | 1.7 | 7.8 | 0.00 | 0.00 | 0.00 | 55 | 1009.1 |
| 20260507145201 | 53 | 14 | 1.7 | 7.8 | 0.00 | 0.00 | 0.00 | 53 | 1009.2 |
| 20260507144631 | 52 | 11 | 1.7 | 7.8 | 0.00 | 0.00 | 0.00 | 54 | 1009.3 |
| 20260507144131 | 52 | 359 | 1.7 | 10.4 | 0.00 | 0.00 | 0.00 | 56 | 1009.4 |
| 20260507143602 | 53 | 14 | 1.7 | 5.2 | 0.00 | 0.00 | 0.00 | 55 | 1009.3 |
| 20260507143031 | 52 | 110 | 2.6 | 7.8 | 0.00 | 0.00 | 0.00 | 57 | 1009.4 |
| 20260507142501 | 52 | 151 | 2.6 | 7.8 | 0.00 | 0.00 | 0.00 | 57 | 1009.5 |
| 20260507141931 | 52 | 242 | 1.7 | 4.3 | 0.00 | 0.00 | 0.00 | 59 | 1009.5 |
| 20260507141401 | 52 | 330 | 1.7 | 8.7 | 0.00 | 0.00 | 0.00 | 62 | 1009.5 |
| 20260507140902 | 51 | 355 | 2.6 | 8.7 | 0.00 | 0.00 | 0.00 | 60 | 1009.6 |
| 20260507140331 | 50 | 4 | 1.7 | 6.1 | 0.00 | 0.00 | 0.00 | 64 | 1009.6 |
| 20260507135910 | 50 | 8 | 0.9 | 5.2 | 0.00 | 0.00 | 0.00 | 66 | 1009.7 |
| 20260507135831 | 50 | 8 | 0.9 | 5.2 | 0.00 | 0.00 | 0.00 | 66 | 1009.7 |
| 20260507135301 | 49 | 32 | 0.9 | 3.5 | 0.00 | 0.00 | 0.00 | 66 | 1009.7 |
| 20260507134801 | 49 | 187 | 1.7 | 5.2 | 0.00 | 0.00 | 0.00 | 68 | 1009.8 |
| 20260507134231 | 49 | 192 | 1.7 | 5.2 | 0.00 | 0.00 | 0.00 | 69 | 1009.8 |
| 20260507133731 | 48 | 28 | 0.9 | 5.2 | 0.00 | 0.00 | 0.00 | 69 | 1009.7 |
| 20260507133201 | 48 | 23 | 0.9 | 3.5 | 0.00 | 0.00 | 0.00 | 70 | 1009.8 |
| 20260507132701 | 49 | 50 | 0.9 | 3.5 | 0.00 | 0.00 | 0.00 | 71 | 1009.8 |
| 20260507132201 | 48 | 188 | 0.0 | 1.7 | 0.00 | 0.00 | 0.00 | 71 | 1009.8 |
| 20260507131631 | 48 | 3 | 0.0 | 3.5 | 0.00 | 0.00 | 0.00 | 72 | 1009.7 |
| 20260507131101 | 46 | 16 | 0.9 | 3.5 | 0.00 | 0.00 | 0.00 | 74 | 1009.7 |
| 20260507130531 | 46 | 72 | 0.0 | 2.6 | 0.00 | 0.00 | 0.00 | 77 | 1009.8 |
| 20260507130031 | 45 | 226 | 0.0 | 2.6 | 0.00 | 0.00 | 0.00 | 79 | 1009.8 |
| 20260507125501 | 44 | 352 | 0.0 | 0.9 | 0.00 | 0.00 | 0.00 | 81 | 1009.7 |
| 20260507125001 | 44 | 345 | 0.0 | 3.5 | 0.00 | 0.00 | 0.00 | 81 | 1009.7 |
| 20260507124501 | 44 | 313 | 0.0 | 3.5 | 0.00 | 0.00 | 0.00 | 80 | 1009.8 |
| 20260507123931 | 43 | 174 | 0.0 | 2.6 | 0.00 | 0.00 | 0.00 | 80 | 1009.8 |
| 20260507123431 | 43 | 331 | 0.0 | 2.6 | 0.00 | 0.00 | 0.00 | 82 | 1009.7 |
| 20260507122901 | 42 | 171 | 0.9 | 2.6 | 0.00 | 0.00 | 0.00 | 83 | 1009.7 |
| 20260507122331 | 42 | 161 | 1.7 | 4.3 | 0.00 | 0.00 | 0.00 | 85 | 1009.6 |
| 20260507121831 | 40 | 159 | 1.7 | 4.3 | 0.00 | 0.01 | 0.00 | 90 | 1009.6 |
| 20260507121301 | 39 | 166 | 0.9 | 2.6 | 0.00 | 0.01 | 0.00 | 93 | 1009.6 |
| 20260507120731 | 37 | 157 | 0.0 | 2.6 | 0.00 | 0.01 | 0.00 | 93 | 1009.7 |
| 20260507120231 | 36 | 24 | 0.0 | 0.9 | 0.00 | 0.02 | 0.00 | 93 | 1009.7 |
| 20260507115201 | 35 | 0 | 0.0 | 0.0 | 0.00 | 0.03 | 0.00 | 92 | 1009.9 |
| 20260507114701 | 34 | 0 | 0.0 | 0.0 | 0.00 | 0.03 | 0.00 | 92 | 1010.0 |
| 20260507114201 | 34 | 20 | 0.0 | 0.9 | 0.00 | 0.03 | 0.00 | 92 | 1010.0 |
| 20260507113631 | 34 | 26 | 0.0 | 0.9 | 0.00 | 0.03 | 0.00 | 92 | 1010.0 |
| 20260507113141 | 34 | 35 | 0.0 | 0.9 | 0.00 | 0.03 | 0.00 | 92 | 1010.1 |
| 20260507113131 | 34 | 35 | 0.0 | 0.9 | 0.00 | 0.03 | 0.00 | 92 | 1010.1 |
| 20260507112631 | 34 | 0 | 0.0 | 0.0 | 0.00 | 0.04 | 0.00 | 92 | 1009.9 |
| 20260507112101 | 33 | 0 | 0.0 | 0.0 | 0.00 | 0.04 | 0.00 | 92 | 1009.9 |
| 20260507111601 | 33 | 0 | 0.0 | 0.0 | 0.00 | 0.04 | 0.00 | 92 | 1009.9 |
| 20260507111101 | 32 | 0 | 0.0 | 0.0 | 0.00 | 0.05 | 0.00 | 92 | 1009.8 |
| 20260507110531 | 32 | 0 | 0.0 | 0.0 | 0.00 | 0.05 | 0.00 | 91 | 1010.0 |
| 20260507110001 | 32 | 0 | 0.0 | 0.0 | 0.00 | 0.06 | 0.00 | 91 | 1009.9 |
| 20260507105501 | 32 | 53 | 0.0 | 0.9 | 0.00 | 0.07 | 0.00 | 91 | 1009.8 |
| 20260507104931 | 32 | 53 | 0.0 | 0.9 | 0.00 | 0.09 | 0.00 | 91 | 1009.8 |
| 20260507104401 | 32 | 53 | 0.0 | 0.9 | 0.00 | 0.10 | 0.00 | 91 | 1009.7 |
| 20260507103831 | 32 | 0 | 0.0 | 0.0 | 0.00 | 0.11 | 0.00 | 91 | 1009.6 |
| 20260507103301 | 32 | 0 | 0.0 | 0.0 | 0.00 | 0.12 | 0.00 | 91 | 1009.5 |
| 20260507102731 | 32 | 0 | 0.0 | 0.0 | 0.00 | 0.14 | 0.00 | 91 | 1009.4 |
| 20260507102231 | 32 | 0 | 0.0 | 0.0 | 0.00 | 0.14 | 0.00 | 91 | 1009.4 |
| 20260507101731 | 33 | 0 | 0.0 | 0.0 | 0.00 | 0.16 | 0.00 | 91 | 1009.4 |
| 20260507101201 | 32 | 0 | 0.0 | 0.0 | 0.00 | 0.17 | 0.00 | 91 | 1009.5 |
| 20260507100631 | 33 | 0 | 0.0 | 0.0 | 0.00 | 0.17 | 0.00 | 91 | 1009.4 |
| 20260507100132 | 33 | 0 | 0.0 | 0.0 | 0.00 | 0.18 | 0.00 | 90 | 1009.5 |
| 20260507095601 | 33 | 0 | 0.0 | 0.0 | 0.00 | 0.19 | 0.00 | 90 | 1009.4 |
| 20260507095102 | 33 | 0 | 0.0 | 0.0 | 0.00 | 0.19 | 0.00 | 90 | 1009.4 |
| 20260507094531 | 33 | 0 | 0.0 | 0.0 | 0.00 | 0.20 | 0.00 | 90 | 1009.3 |
| 20260507094031 | 32 | 0 | 0.0 | 0.0 | 0.00 | 0.20 | 0.00 | 90 | 1009.4 |
| 20260507093531 | 32 | 0 | 0.0 | 0.0 | 0.00 | 0.21 | 0.00 | 90 | 1009.3 |
| 20260507093031 | 32 | 0 | 0.0 | 0.0 | 0.00 | 0.22 | 0.00 | 90 | 1009.3 |
| 20260507091931 | 33 | 0 | 0.0 | 0.0 | 0.00 | 0.24 | 0.00 | 89 | 1009.5 |
| 20260507091431 | 33 | 0 | 0.0 | 0.0 | 0.00 | 0.26 | 0.00 | 89 | 1009.5 |
| 20260507090901 | 33 | 0 | 0.0 | 0.0 | 0.00 | 0.27 | 0.00 | 89 | 1009.5 |
| 20260507090331 | 33 | 0 | 0.0 | 0.0 | 0.00 | 0.29 | 0.00 | 89 | 1009.6 |
| 20260507085801 | 34 | 0 | 0.0 | 0.0 | 0.00 | 0.31 | 0.00 | 89 | 1009.4 |
| 20260507085301 | 34 | 0 | 0.0 | 0.0 | 0.00 | 0.32 | 0.00 | 89 | 1009.5 |
| 20260507084802 | 34 | 0 | 0.0 | 0.0 | 0.00 | 0.34 | 0.00 | 89 | 1009.6 |
| 20260507084231 | 34 | 0 | 0.0 | 0.0 | 0.00 | 0.36 | 0.00 | 89 | 1009.6 |
| 20260507083731 | 34 | 0 | 0.0 | 0.0 | 0.00 | 0.38 | 0.00 | 89 | 1009.6 |
| 20260507083231 | 34 | 0 | 0.0 | 0.0 | 0.00 | 0.39 | 0.00 | 89 | 1009.7 |
| 20260507082701 | 34 | 0 | 0.0 | 0.0 | 0.00 | 0.40 | 0.00 | 89 | 1009.7 |
| 20260507082201 | 34 | 0 | 0.0 | 0.0 | 0.00 | 0.41 | 0.00 | 88 | 1009.6 |
| 20260507081631 | 34 | 0 | 0.0 | 0.0 | 0.00 | 0.42 | 0.00 | 88 | 1009.6 |
| 20260507081131 | 34 | 0 | 0.0 | 0.0 | 0.00 | 0.42 | 0.00 | 88 | 1009.7 |
| 20260507080601 | 35 | 0 | 0.0 | 0.0 | 0.00 | 0.43 | 0.00 | 88 | 1009.6 |
| 20260507075601 | 35 | 0 | 0.0 | 0.0 | 0.00 | 0.44 | 0.00 | 88 | 1009.8 |
| 20260507075101 | 35 | 0 | 0.0 | 0.0 | 0.00 | 0.44 | 0.00 | 87 | 1009.7 |
| 20260507074531 | 35 | 0 | 0.0 | 0.0 | 0.00 | 0.45 | 0.00 | 87 | 1009.7 |
| 20260507074001 | 35 | 0 | 0.0 | 0.0 | 0.00 | 0.46 | 0.00 | 87 | 1009.6 |
| 20260507073431 | 35 | 0 | 0.0 | 0.0 | 0.00 | 0.46 | 0.00 | 87 | 1009.5 |
| 20260507072901 | 36 | 0 | 0.0 | 0.0 | 0.00 | 0.47 | 0.00 | 86 | 1009.6 |
| 20260507072401 | 36 | 0 | 0.0 | 0.0 | 0.00 | 0.47 | 0.00 | 86 | 1009.7 |
| 20260507071831 | 36 | 0 | 0.0 | 0.0 | 0.00 | 0.47 | 0.00 | 86 | 1009.8 |
| 20260507071331 | 36 | 0 | 0.0 | 0.0 | 0.00 | 0.47 | 0.00 | 85 | 1009.9 |
| 20260507070831 | 36 | 0 | 0.0 | 0.0 | 0.00 | 0.48 | 0.00 | 85 | 1009.9 |
| 20260507070301 | 37 | 0 | 0.0 | 0.0 | 0.00 | 0.49 | 0.00 | 85 | 1009.8 |
| 20260507065801 | 37 | 0 | 0.0 | 0.0 | 0.00 | 0.49 | 0.00 | 85 | 1009.9 |
| 20260507065234 | 37 | 0 | 0.0 | 0.0 | 0.00 | 0.50 | 0.00 | 84 | 1010.0 |
| 20260507064731 | 37 | 0 | 0.0 | 0.0 | 0.00 | 0.50 | 0.00 | 84 | 1010.0 |
| 20260507064201 | 37 | 0 | 0.0 | 0.0 | 0.00 | 0.50 | 0.00 | 83 | 1010.1 |
| 20260507063701 | 38 | 0 | 0.0 | 0.0 | 0.00 | 0.51 | 0.00 | 83 | 1010.0 |
| 20260507063201 | 38 | 34 | 0.0 | 0.9 | 0.00 | 0.51 | 0.00 | 83 | 1010.2 |
| 20260507062631 | 38 | 34 | 0.0 | 0.9 | 0.00 | 0.52 | 0.00 | 82 | 1010.1 |
| 20260507062101 | 38 | 0 | 0.0 | 0.0 | 0.00 | 0.53 | 0.00 | 82 | 1009.9 |
| 20260507061603 | 39 | 0 | 0.0 | 0.0 | 0.00 | 0.53 | 0.00 | 82 | 1010.1 |
| 20260507061032 | 39 | 0 | 0.0 | 0.0 | 0.00 | 0.54 | 0.00 | 80 | 1010.2 |
| 20260507060501 | 39 | 0 | 0.0 | 0.0 | 0.00 | 0.54 | 0.00 | 80 | 1010.0 |
| 20260507055931 | 40 | 0 | 0.0 | 0.0 | 0.00 | 0.54 | 0.00 | 79 | 1010.0 |
| 20260507055431 | 40 | 0 | 0.0 | 0.0 | 0.00 | 0.54 | 0.00 | 78 | 1010.2 |
| 20260507054938 | 40 | 0 | 0.0 | 0.0 | 0.00 | 0.54 | 0.00 | 78 | 1010.2 |
| 20260507054901 | 40 | 0 | 0.0 | 0.0 | 0.00 | 0.54 | 0.00 | 78 | 1010.2 |
| 20260507054331 | 41 | 0 | 0.0 | 0.0 | 0.00 | 0.54 | 0.00 | 77 | 1010.2 |
| 20260507053832 | 41 | 0 | 0.0 | 0.0 | 0.00 | 0.55 | 0.00 | 78 | 1010.2 |
| 20260507053302 | 41 | 0 | 0.0 | 0.0 | 0.00 | 0.55 | 0.00 | 77 | 1010.2 |
| 20260507052731 | 42 | 0 | 0.0 | 0.0 | 0.00 | 0.56 | 0.00 | 77 | 1010.3 |
| 20260507052201 | 42 | 0 | 0.0 | 0.0 | 0.00 | 0.56 | 0.00 | 76 | 1010.3 |
| 20260507051701 | 42 | 0 | 0.0 | 0.0 | 0.00 | 0.57 | 0.00 | 76 | 1010.4 |
| 20260507051131 | 42 | 0 | 0.0 | 0.0 | 0.00 | 0.57 | 0.00 | 75 | 1010.5 |
| 20260507050632 | 42 | 0 | 0.0 | 0.0 | 0.00 | 0.57 | 0.00 | 74 | 1010.4 |
| 20260507050131 | 43 | 0 | 0.0 | 0.0 | 0.00 | 0.57 | 0.00 | 73 | 1010.5 |
| 20260507045601 | 43 | 33 | 0.0 | 0.9 | 0.00 | 0.57 | 0.00 | 71 | 1010.6 |
| 20260507045102 | 43 | 33 | 0.0 | 0.9 | 0.00 | 0.58 | 0.00 | 70 | 1010.6 |
| 20260507044601 | 43 | 0 | 0.0 | 0.0 | 0.00 | 0.58 | 0.00 | 70 | 1010.6 |
| 20260507044103 | 43 | 0 | 0.0 | 0.0 | 0.00 | 0.58 | 0.00 | 71 | 1010.7 |
| 20260507043031 | 43 | 23 | 0.0 | 0.9 | 0.00 | 0.59 | 0.00 | 70 | 1010.7 |
| 20260507042504 | 43 | 23 | 0.0 | 0.9 | 0.00 | 0.59 | 0.00 | 70 | 1010.8 |
| 20260507041932 | 43 | 8 | 0.0 | 0.9 | 0.00 | 0.59 | 0.00 | 69 | 1010.8 |
| 20260507041434 | 43 | 2 | 0.0 | 0.9 | 0.00 | 0.59 | 0.00 | 69 | 1010.8 |
| 20260507040901 | 43 | 353 | 0.0 | 0.9 | 0.00 | 0.60 | 0.00 | 70 | 1010.9 |
| 20260507040439 | 43 | 308 | 0.0 | 0.9 | 0.00 | 0.60 | 0.00 | 70 | 1010.7 |
| 20260507040402 | 43 | 308 | 0.0 | 0.9 | 0.00 | 0.60 | 0.00 | 70 | 1010.7 |
| 20260507035901 | 43 | 0 | 0.0 | 0.0 | 0.00 | 0.60 | 0.60 | 70 | 1010.7 |
| 20260507035409 | 44 | 0 | 0.0 | 0.0 | 0.00 | 0.60 | 0.60 | 71 | 1010.6 |
| 20260507035331 | 44 | 0 | 0.0 | 0.0 | 0.00 | 0.60 | 0.60 | 71 | 1010.6 |
| 20260507034831 | 44 | 0 | 0.0 | 0.0 | 0.00 | 0.60 | 0.60 | 72 | 1010.6 |
| 20260507034301 | 44 | 34 | 0.0 | 0.9 | 0.00 | 0.60 | 0.60 | 73 | 1010.7 |
| 20260507033801 | 44 | 34 | 0.0 | 0.9 | 0.00 | 0.60 | 0.60 | 72 | 1010.6 |
| 20260507033231 | 44 | 0 | 0.0 | 0.0 | 0.00 | 0.60 | 0.60 | 72 | 1010.6 |
| 20260507032702 | 44 | 20 | 0.0 | 0.9 | 0.00 | 0.60 | 0.60 | 70 | 1010.6 |
| 20260507032131 | 44 | 7 | 0.0 | 1.7 | 0.00 | 0.60 | 0.60 | 70 | 1010.6 |
| 20260507031631 | 44 | 351 | 0.0 | 1.7 | 0.00 | 0.60 | 0.60 | 70 | 1010.7 |
| 20260507031101 | 44 | 360 | 0.0 | 2.6 | 0.00 | 0.61 | 0.60 | 70 | 1010.7 |
| 20260507030531 | 44 | 357 | 0.0 | 2.6 | 0.00 | 0.62 | 0.60 | 70 | 1010.8 |
| 20260507025503 | 44 | 0 | 0.0 | 0.0 | 0.00 | 0.62 | 0.60 | 72 | 1010.7 |
| 20260507025001 | 44 | 27 | 0.0 | 0.9 | 0.00 | 0.62 | 0.60 | 71 | 1010.7 |
| 20260507024511 | 44 | 27 | 0.0 | 0.9 | 0.00 | 0.62 | 0.60 | 71 | 1010.7 |
| 20260507024431 | 44 | 27 | 0.0 | 0.9 | 0.00 | 0.62 | 0.60 | 71 | 1010.7 |
| 20260507024007 | 44 | 0 | 0.0 | 0.0 | 0.00 | 0.63 | 0.60 | 70 | 1010.5 |
| 20260507023931 | 44 | 0 | 0.0 | 0.0 | 0.00 | 0.63 | 0.60 | 70 | 1010.5 |
| 20260507023431 | 44 | 0 | 0.0 | 0.0 | 0.00 | 0.63 | 0.60 | 71 | 1010.3 |
| 20260507022900 | 44 | 327 | 0.0 | 0.9 | 0.00 | 0.64 | 0.60 | 70 | 1010.4 |
| 20260507022331 | 44 | 333 | 0.0 | 1.7 | 0.00 | 0.65 | 0.60 | 71 | 1010.2 |
| 20260507021830 | 44 | 332 | 0.9 | 2.6 | 0.00 | 0.69 | 0.60 | 72 | 1010.2 |
| 20260507021508 | 44 | 334 | 0.0 | 2.6 | 0.00 | 0.71 | 0.60 | 71 | 1010.2 |
| 20260507021301 | 44 | 334 | 0.0 | 2.6 | 0.00 | 0.71 | 0.60 | 71 | 1010.2 |
| 20260507020730 | 44 | 351 | 0.0 | 2.6 | 0.00 | 0.73 | 0.60 | 71 | 1010.1 |
| 20260507020506 | 45 | 344 | 0.0 | 2.6 | 0.00 | 0.74 | 0.60 | 71 | 1010.2 |
| 20260507020231 | 45 | 344 | 0.0 | 2.6 | 0.00 | 0.74 | 0.60 | 71 | 1010.2 |
| 20260507015802 | 45 | 348 | 0.0 | 1.7 | 0.00 | 0.75 | 0.60 | 70 | 1010.3 |
| 20260507015701 | 45 | 348 | 0.0 | 1.7 | 0.00 | 0.75 | 0.60 | 70 | 1010.3 |
| 20260507015201 | 45 | 359 | 0.0 | 0.9 | 0.00 | 0.78 | 0.60 | 71 | 1010.3 |
| 20260507014632 | 45 | 36 | 0.0 | 0.9 | 0.00 | 0.83 | 0.60 | 70 | 1010.3 |
| 20260507014101 | 45 | 348 | 0.0 | 0.9 | 0.00 | 0.85 | 0.60 | 69 | 1010.3 |
| 20260507013600 | 45 | 335 | 0.0 | 1.7 | 0.00 | 0.85 | 0.60 | 69 | 1010.3 |
| 20260507013100 | 45 | 337 | 0.9 | 4.3 | 0.00 | 0.85 | 0.60 | 70 | 1010.3 |
| 20260507012601 | 45 | 336 | 0.9 | 4.3 | 0.00 | 0.85 | 0.60 | 69 | 1010.2 |
| 20260507012030 | 45 | 350 | 1.7 | 4.3 | 0.00 | 0.85 | 0.60 | 68 | 1010.3 |
| 20260507011531 | 45 | 353 | 1.7 | 4.3 | 0.00 | 0.85 | 0.60 | 67 | 1010.1 |
| 20260507011001 | 45 | 346 | 0.9 | 3.5 | 0.00 | 0.85 | 0.60 | 69 | 1010.3 |
| 20260507010431 | 46 | 340 | 0.0 | 0.9 | 0.00 | 0.85 | 0.60 | 71 | 1010.3 |
| 20260507005930 | 46 | 347 | 0.0 | 2.6 | 0.00 | 0.85 | 0.60 | 68 | 1010.2 |
| 20260507005504 | 46 | 354 | 0.0 | 2.6 | 0.00 | 0.85 | 0.60 | 69 | 1010.0 |
| 20260507005431 | 46 | 354 | 0.0 | 2.6 | 0.00 | 0.85 | 0.60 | 69 | 1010.0 |
| 20260507004931 | 46 | 360 | 0.0 | 1.7 | 0.00 | 0.85 | 0.60 | 70 | 1010.1 |
| 20260507004401 | 46 | 341 | 0.0 | 0.9 | 0.00 | 0.85 | 0.60 | 66 | 1010.1 |
| 20260507003831 | 46 | 341 | 0.0 | 0.9 | 0.00 | 0.85 | 0.60 | 66 | 1010.2 |
| 20260507003331 | 46 | 341 | 0.0 | 0.9 | 0.00 | 0.85 | 0.60 | 65 | 1010.1 |
| 20260507002831 | 46 | 341 | 0.0 | 0.9 | 0.00 | 0.85 | 0.60 | 63 | 1010.3 |
| 20260507001732 | 46 | 337 | 0.0 | 1.7 | 0.00 | 0.85 | 0.60 | 63 | 1010.1 |
| 20260507001201 | 47 | 336 | 0.9 | 2.6 | 0.00 | 0.85 | 0.60 | 64 | 1010.1 |
| 20260507000700 | 47 | 344 | 0.9 | 3.5 | 0.00 | 0.86 | 0.60 | 60 | 1009.9 |
| 20260507000201 | 47 | 353 | 0.9 | 3.5 | 0.00 | 0.86 | 0.60 | 61 | 1010.1 |
| 20260506235631 | 47 | 349 | 0.9 | 3.5 | 0.00 | 0.86 | 0.60 | 60 | 1010.3 |
| 20260506235101 | 47 | 338 | 0.9 | 2.6 | 0.00 | 0.86 | 0.60 | 61 | 1010.4 |
| 20260506234530 | 47 | 337 | 0.9 | 5.2 | 0.00 | 0.86 | 0.60 | 60 | 1010.1 |
| 20260506234031 | 47 | 338 | 1.7 | 5.2 | 0.00 | 0.86 | 0.60 | 60 | 1010.1 |
| 20260506233531 | 48 | 339 | 1.7 | 6.1 | 0.00 | 0.86 | 0.60 | 61 | 1009.7 |
| 20260506233031 | 48 | 340 | 2.6 | 6.1 | 0.00 | 0.86 | 0.60 | 60 | 1009.6 |
| 20260506232531 | 48 | 337 | 2.6 | 6.1 | 0.00 | 0.86 | 0.60 | 60 | 1009.6 |
| 20260506232001 | 48 | 344 | 2.6 | 7.0 | 0.00 | 0.86 | 0.60 | 59 | 1009.6 |